Theta_e
314 309 306 303 296 290 287 289 293 294 296 301 297 296 294 294 294 291 309 321 327 331 339 346 350 354 353 353 353 353 352 351 352 351 351 350 350 349 348 346 343 341 340 339 337 335 334 335 336
310 309 304 296 288 284 286 288 290 295 295 297 298 297 300 296 300 306 312 323 330 333 341 344 347 352 353 353 353 352 352 352 351 350 350 349 349 349 347 344 341 340 338 337 335 333 331 331 333
309 305 298 291 285 284 286 290 294 293 295 296 300 302 300 296 305 307 315 323 332 335 340 343 346 350 352 352 352 351 351 350 351 350 349 349 349 347 345 341 340 336 336 335 332 330 327 327 329
304 300 295 289 288 291 291 292 291 293 295 298 296 298 300 303 304 312 318 328 331 334 338 342 347 351 352 352 352 351 350 350 350 350 349 349 346 343 342 339 337 335 333 333 330 327 325 324 325
299 295 289 287 288 290 289 293 293 293 298 299 297 295 295 302 314 317 322 327 328 331 335 339 346 349 350 351 352 351 351 350 350 351 350 347 344 340 338 336 334 335 332 331 328 326 323 322 323
297 292 286 285 287 290 292 292 293 293 293 296 298 297 299 306 311 317 320 323 327 330 333 337 338 342 346 348 349 350 350 349 349 349 348 345 341 339 337 335 333 334 331 330 327 324 321 320 321
294 288 285 284 286 289 292 293 296 294 291 296 296 296 298 303 308 317 315 317 324 327 331 334 338 339 337 341 343 346 347 346 345 347 345 342 340 339 338 336 334 332 330 328 325 322 319 317 318
295 291 286 285 286 287 292 294 293 296 294 297 299 294 296 302 304 314 315 313 314 324 327 330 335 340 340 338 335 339 341 341 341 341 339 335 335 334 333 331 333 330 329 327 325 322 319 317 314
295 287 283 286 288 289 293 293 294 294 297 294 295 300 296 304 308 308 308 312 312 317 323 326 332 338 340 336 334 332 334 335 336 334 331 329 328 328 326 325 329 331 330 326 325 322 319 315 309
291 285 286 289 290 294 293 292 293 293 291 292 293 296 298 305 305 305 304 307 308 312 316 322 326 335 337 337 338 336 332 332 332 332 330 328 326 327 325 321 326 329 328 327 325 322 317 305 292
291 288 289 293 294 294 293 292 293 294 292 292 292 295 296 295 294 295 296 298 300 306 312 318 323 329 334 333 336 336 335 331 329 329 328 328 326 324 322 321 318 316 316 315 315 310 306 301 295
292 294 294 296 296 294 292 293 293 293 295 295 293 294 294 295 294 294 295 295 296 296 300 310 321 325 332 332 333 334 334 332 330 329 328 326 324 322 320 319 317 316 314 311 308 306 303 301 296
292 292 294 296 295 294 294 293 292 294 294 294 296 296 294 293 293 294 294 295 295 296 299 300 315 322 325 330 331 331 332 332 331 330 328 326 323 321 319 318 317 315 313 312 309 304 303 301 297
290 292 293 294 295 293 293 290 292 292 292 294 295 293 292 292 292 292 293 293 294 296 298 303 306 320 323 324 328 328 329 330 329 324 324 326 324 322 319 317 316 315 313 310 307 304 302 300 296
292 290 291 292 291 292 293 288 290 293 292 292 292 291 291 291 291 290 291 292 292 294 297 301 312 318 321 321 324 325 324 325 326 325 325 324 322 321 319 317 315 314 311 305 303 301 299 298 296
288 286 285 290 290 291 292 287 292 292 291 290 290 289 289 290 289 289 290 291 292 293 295 300 311 317 319 320 321 321 321 319 319 321 322 322 322 322 319 317 315 311 308 308 306 304 303 298 295
285 283 283 288 291 290 288 287 292 292 291 289 288 287 288 288 288 289 289 290 291 292 294 296 301 309 315 315 313 309 306 304 303 303 305 310 315 317 316 314 311 309 309 308 306 304 300 299 296
283 282 283 284 289 289 287 289 292 290 289 287 285 285 286 286 287 288 289 289 291 291 293 294 296 300 307 307 305 303 300 299 298 297 298 299 303 307 312 311 310 309 307 306 304 301 298 296 294
286 284 283 286 290 287 289 288 289 289 288 287 286 286 286 286 287 288 288 288 289 290 291 292 293 294 298 299 301 297 295 295 294 295 294 295 295 296 299 303 304 305 304 303 302 298 297 297 293
285 283 283 287 290 289 287 287 287 287 286 286 285 285 285 286 287 288 287 287 288 288 289 290 290 291 293 294 293 293 292 291 290 290 290 290 290 291 293 293 295 296 297 298 298 297 296 294 293
284 283 283 285 287 286 284 284 284 286 286 286 286 286 286 286 285 286 286 286 286 286 287 289 289 290 290 291 291 291 290 288 287 287 287 287 287 288 289 289 290 291 292 291 292 292 292 290 291
283 289 288 287 284 281 284 278 282 283 283 284 284 284 284 285 286 286 285 284 284 284 286 287 288 288 288 289 288 286 284 283 284 285 284 285 286 285 286 287 287 287 288 288 288 290 289 289 288
287 289 288 285 282 279 279 278 281 283 281 282 283 283 284 284 285 284 284 285 284 284 283 284 286 286 286 286 285 284 283 283 282 282 282 283 284 284 284 285 285 285 285 285 285 286 287 288 287
289 287 285 282 280 276 281 280 280 281 283 282 283 283 284 284 284 284 284 285 284 283 282 282 284 284 285 284 284 282 281 281 281 281 281 281 282 282 282 283 283 283 283 284 284 285 285 287 287
286 284 278 275 275 276 280 279 282 284 285 285 284 283 283 283 283 282 282 282 282 282 282 282 282 281 282 283 283 282 282 281 281 281 281 281 281 281 281 282 282 282 282 283 283 282 282 284 282
284 284 278 271 273 276 281 278 283 284 285 287 286 285 284 283 283 282 282 281 282 282 281 281 281 280 281 281 282 282 282 282 281 280 280 280 280 281 282 282 283 282 282 282 281 280 280 280 280
284 282 285 278 267 272 278 281 283 284 283 284 284 284 283 282 282 282 282 282 281 281 281 281 281 281 281 280 280 280 281 281 280 280 279 279 279 281 280 279 279 279 280 280 280 280 280 279 280
286 288 281 279 270 268 276 278 280 280 281 282 283 283 283 283 282 282 282 282 281 281 281 281 281 280 280 280 280 280 280 280 280 280 280 280 280 280 280 280 279 280 279 279 278 278 278 277 278
283 282 282 283 279 271 269 275 282 283 284 283 284 284 283 282 282 281 282 282 282 281 279 280 280 280 280 281 280 280 280 280 279 279 279 279 280 280 280 280 280 280 280 280 278 277 277 277 277
284 284 283 279 275 275 276 278 284 285 286 285 285 284 283 282 282 282 281 280 280 280 281 281 281 280 280 280 280 280 280 279 279 278 279 279 279 280 280 280 280 280 280 279 278 278 278 277 277
Wind_Speed
4 3 3 6 5 6 1 1 2 2 2 1 2 3 3 3 4 4 3 6 1 6 8 8 10 11 12 11 11 11 10 11 12 12 11 10 10 12 12 12 10 10 9 9 10 11 10 10 9
3 0 5 3 7 4 5 4 2 2 1 1 2 2 2 1 1 4 2 6 3 6 7 6 9 11 13 12 11 11 10 10 11 11 11 10 10 12 10 11 11 11 10 9 10 11 10 9 8
3 4 5 6 4 4 4 4 3 2 2 2 1 0 2 1 1 2 2 8 6 7 6 6 10 10 12 11 13 12 10 10 11 10 10 10 9 11 9 8 8 6 9 8 9 10 9 8 9
3 6 5 6 1 3 4 2 3 3 2 3 0 2 3 1 1 2 1 7 7 6 6 8 11 11 11 13 11 12 11 10 10 10 10 11 9 10 9 9 5 4 6 7 8 9 9 9 9
5 4 5 4 2 3 3 3 1 2 2 1 2 3 3 1 1 2 5 5 6 5 5 6 11 10 10 13 11 11 11 10 11 11 11 7 11 10 8 6 2 4 3 5 7 8 9 9 8
5 4 5 1 3 4 5 2 1 1 2 3 2 2 3 3 1 4 5 5 4 6 5 5 8 9 9 11 12 9 9 8 9 9 10 11 12 11 9 6 2 3 2 4 5 7 7 8 8
7 5 4 2 3 4 2 5 3 1 3 2 1 1 3 3 3 4 4 4 5 5 5 5 6 6 8 9 10 10 8 7 8 9 11 11 11 11 9 7 3 3 1 2 4 5 5 5 7
6 6 3 3 2 4 2 6 2 2 3 5 1 2 3 3 4 4 4 3 3 4 5 6 6 9 6 5 8 10 9 7 6 8 10 9 8 9 9 7 5 2 1 2 3 4 5 6 8
3 6 1 4 6 3 2 5 1 1 1 4 3 1 3 3 2 3 2 3 2 2 4 3 4 10 8 3 3 4 5 5 5 7 9 7 4 5 6 5 4 2 2 2 2 3 5 8 9
6 4 6 4 4 1 3 0 4 4 3 3 3 5 8 4 5 3 4 5 4 4 4 4 4 8 8 4 3 3 2 2 3 3 5 4 4 4 4 3 4 3 1 3 2 2 8 7 4
2 5 3 2 4 1 2 2 1 1 6 4 2 7 6 8 9 9 8 6 7 7 5 5 6 6 8 5 3 2 2 2 2 3 3 3 3 3 3 2 2 2 4 2 4 5 4 4 4
1 4 3 4 1 2 2 2 4 4 7 4 4 3 6 11 9 8 9 8 9 9 8 7 7 7 8 3 3 3 2 2 2 3 5 4 2 4 3 2 2 1 2 1 2 2 2 3 3
3 3 2 5 5 5 2 6 4 10 5 8 9 12 10 8 8 7 7 6 8 8 9 9 6 6 7 8 4 3 3 3 3 3 4 4 4 4 3 3 2 2 2 1 1 1 1 1 2
0 3 6 6 6 3 4 1 2 5 5 10 10 10 9 11 10 8 11 11 12 11 11 11 5 5 6 5 5 3 2 3 3 2 3 5 4 4 4 3 3 2 2 2 2 1 1 1 2
1 5 7 5 1 4 6 1 7 5 8 9 9 8 9 10 12 12 10 10 11 10 11 11 5 6 7 7 5 4 3 2 3 3 4 1 1 3 3 1 2 1 1 2 2 1 1 2 2
3 4 4 4 1 1 5 8 2 8 8 7 8 8 9 11 11 11 12 11 12 11 13 12 10 8 9 9 7 7 8 8 8 8 7 7 4 3 2 2 2 3 2 0 1 0 2 2 2
4 4 4 9 2 2 3 6 3 11 8 8 8 8 9 10 13 12 12 11 12 11 12 13 13 13 13 14 12 12 14 11 9 10 10 12 11 8 4 4 3 3 3 2 3 2 2 3 3
6 5 4 6 1 3 1 7 7 11 12 7 7 7 8 10 11 10 11 11 11 11 12 13 11 13 12 11 11 10 11 10 10 11 11 14 11 13 9 7 6 5 4 3 2 2 0 1 3
5 4 5 5 3 1 6 6 5 7 7 7 6 6 7 8 6 8 10 10 11 14 15 15 15 12 8 6 6 7 7 8 11 10 14 13 12 13 12 9 10 7 5 4 4 3 4 2 2
2 3 6 5 4 5 5 7 3 6 4 4 6 6 6 5 8 10 11 11 13 12 13 14 14 13 11 6 4 4 5 7 7 8 12 13 14 14 12 10 9 11 7 10 8 5 3 2 3
5 7 5 6 4 2 3 6 4 5 7 8 7 5 5 5 6 8 10 10 11 13 12 13 13 13 12 11 5 4 5 4 6 8 9 11 12 12 12 11 9 8 7 7 6 7 6 4 3
5 8 6 4 3 4 2 6 2 4 4 4 5 5 4 5 5 5 6 8 9 9 9 12 13 13 12 11 12 15 9 8 4 3 4 7 11 12 11 10 10 9 6 9 6 6 4 4 3
7 6 7 4 4 1 2 1 6 7 5 5 6 6 5 4 5 5 6 6 7 7 7 7 11 13 11 12 10 9 10 6 3 4 8 8 7 9 10 10 9 9 7 6 8 8 7 3 2
10 7 7 5 3 1 7 7 5 6 7 7 5 6 7 6 6 5 5 5 6 6 6 6 11 10 8 10 10 11 10 7 7 6 6 5 4 5 8 7 6 5 6 6 5 5 7 6 5
5 7 0 3 1 6 1 4 9 5 4 12 16 12 9 7 7 6 7 5 5 6 6 6 8 8 7 7 8 7 8 7 7 5 4 5 4 3 5 6 7 5 5 5 5 5 5 4 5
6 7 7 8 4 3 1 7 6 0 2 9 13 12 9 8 6 7 6 6 6 6 6 6 7 7 6 7 6 6 6 4 4 4 3 3 2 2 4 4 4 5 5 5 5 3 3 3 4
6 4 3 8 2 3 5 4 2 2 3 8 13 10 10 8 7 7 7 6 6 6 6 7 7 6 6 7 5 6 5 6 4 3 2 1 0 2 4 4 4 4 4 4 5 4 6 5 5
4 7 4 2 2 5 4 5 7 7 9 9 11 13 9 8 8 8 7 7 5 5 4 4 4 5 4 4 3 4 5 4 3 3 6 5 4 4 6 6 6 7 6 4 4 4 5 5 4
4 3 2 5 5 7 2 7 5 9 15 19 16 14 12 10 9 8 7 7 6 6 6 6 4 4 4 5 5 6 6 7 6 6 6 6 6 6 7 6 8 9 9 9 7 7 7 7 9
2 7 7 7 6 3 3 8 2 5 14 17 15 12 10 8 8 8 7 7 6 6 4 3 4 4 3 3 4 4 5 5 5 6 6 6 6 7 7 9 10 10 10 9 9 10 10 11 13
Wind_Direction
336 359 72 42 58 65 332 291 271 297 355 215 129 137 170 173 157 206 279 186 315 142 159 170 176 169 165 161 154 144 143 141 137 126 122 121 114 109 99 98 90 76 61 54 50 51 50 47 47
345 136 44 79 82 61 283 271 246 228 277 269 123 87 60 267 263 295 7 178 166 146 153 164 179 173 170 165 154 147 153 152 141 135 135 132 130 122 119 108 88 68 55 43 44 42 39 44 40
152 45 79 90 105 150 203 237 259 308 305 30 51 119 156 258 252 226 226 150 142 147 150 161 176 184 176 163 157 160 163 163 151 153 149 151 153 107 97 87 56 46 49 39 39 40 32 33 32
48 13 40 79 111 230 204 296 243 329 4 46 91 26 318 255 260 301 71 147 140 152 155 164 176 185 174 157 159 166 169 171 162 164 156 156 121 99 84 59 46 19 40 29 34 37 35 32 31
35 53 56 80 284 270 271 325 359 323 308 347 349 317 286 353 356 86 127 146 154 160 157 164 177 186 175 158 166 170 175 180 181 172 161 146 115 111 107 102 48 27 25 20 34 35 31 26 33
43 91 57 183 273 292 292 351 303 17 327 317 47 342 275 292 243 154 136 163 166 164 165 168 178 185 182 171 168 179 188 196 199 178 144 134 130 133 130 124 106 70 6 10 39 43 34 30 35
104 78 171 185 263 312 274 335 92 141 317 321 218 338 280 346 235 127 136 156 173 164 166 175 180 197 190 188 174 180 201 219 188 167 145 147 145 144 136 130 117 108 314 344 62 53 39 36 46
104 93 119 243 212 262 298 338 152 126 283 312 220 297 318 16 27 109 92 97 173 192 192 189 180 195 201 213 184 182 191 203 172 158 154 149 148 146 143 143 148 134 283 329 75 53 28 26 27
115 61 189 226 162 239 335 14 249 332 272 348 329 282 6 329 43 64 27 15 353 281 242 216 194 200 204 194 203 187 183 182 186 156 142 132 133 142 143 148 154 147 90 318 90 54 37 33 15
81 108 223 213 207 232 314 289 317 10 11 283 336 347 359 25 14 353 344 323 330 311 276 237 202 206 207 199 183 186 176 178 159 146 154 149 151 139 136 129 136 122 83 352 148 82 75 43 18
135 190 226 266 229 251 276 285 253 298 309 189 278 295 337 13 23 25 7 347 322 306 289 229 200 191 204 193 168 154 144 138 140 150 142 143 122 107 100 86 43 50 39 34 49 57 57 42 28
314 239 205 284 64 14 269 312 288 194 235 129 24 21 41 28 22 14 0 350 339 326 302 285 209 176 190 170 173 148 151 152 183 198 160 134 139 139 146 122 101 22 8 76 87 74 65 43 23
181 275 225 276 281 255 333 255 242 267 341 93 71 53 45 33 15 6 352 345 337 337 318 307 239 181 164 174 168 160 158 149 164 150 150 148 160 154 153 171 180 182 165 144 157 107 32 1 349
239 283 286 285 269 245 219 290 141 81 95 68 59 45 35 32 11 6 11 360 357 341 335 321 269 172 144 130 154 138 127 142 145 172 189 171 174 174 180 169 193 208 173 157 173 190 232 293 334
36 332 330 259 275 236 156 220 231 68 74 75 57 49 43 26 21 18 357 357 350 344 335 353 21 123 109 101 97 85 76 73 53 41 55 13 47 146 162 167 220 280 91 123 131 111 31 330 330
29 49 356 285 145 88 148 265 63 42 84 81 56 41 37 28 19 8 2 3 0 360 5 9 26 72 84 81 69 63 55 52 40 32 36 35 33 18 7 357 12 27 80 161 42 320 287 275 289
5 234 212 314 184 124 159 256 239 19 65 80 54 39 36 26 21 11 4 1 4 7 13 26 33 44 72 78 75 67 58 51 41 36 27 22 28 31 50 46 44 57 55 27 4 1 1 331 325
197 209 232 239 10 75 285 275 299 32 73 82 70 48 42 38 19 8 11 9 16 20 29 35 36 39 65 73 71 66 62 52 45 38 37 31 22 24 35 41 32 32 36 21 11 351 75 255 299
139 184 206 243 230 118 243 257 322 31 66 82 74 67 57 45 5 27 24 21 29 35 37 34 43 27 41 52 66 58 61 52 47 38 33 37 40 36 30 28 27 23 32 19 19 359 350 328 354
199 182 246 287 260 168 265 253 73 40 44 79 95 75 61 60 44 34 25 30 35 38 38 41 43 39 40 44 57 75 81 59 60 44 41 34 33 32 40 38 32 25 21 24 18 23 342 324 5
211 201 208 223 336 284 328 284 172 59 83 74 57 69 56 50 51 34 34 31 37 38 35 45 45 50 50 51 61 63 63 53 44 34 38 31 37 37 38 36 35 33 38 30 16 9 9 339 335
219 201 173 180 111 233 61 279 199 134 110 83 100 95 88 64 52 45 41 49 44 33 38 49 53 46 43 45 67 71 75 77 39 54 43 40 36 35 33 35 35 38 33 30 11 7 8 3 332
232 136 159 146 153 71 278 54 257 140 180 173 170 152 138 109 93 71 52 52 42 35 33 50 64 59 48 55 63 73 75 71 44 34 51 39 33 36 33 31 28 29 24 18 17 11 11 11 343
144 80 48 49 80 292 227 175 252 191 184 158 179 178 169 146 123 103 82 71 69 54 54 58 72 62 58 68 70 78 82 71 65 44 46 34 12 24 27 26 27 22 18 14 7 1 6 3 350
105 105 223 352 348 226 135 149 243 171 165 172 174 181 178 165 155 144 129 114 92 83 75 77 78 72 71 74 75 81 87 84 78 60 49 40 22 9 13 16 14 7 358 354 355 357 359 354 346
183 164 158 205 203 239 324 233 257 43 277 180 168 169 167 171 172 161 149 131 115 103 95 89 88 93 85 86 86 86 85 81 78 72 62 46 32 0 3 3 359 355 349 340 342 336 323 326 311
183 188 168 105 55 57 224 277 231 113 88 143 159 163 180 177 172 168 157 141 137 135 133 124 116 108 93 91 89 83 91 91 99 110 140 160 261 298 338 325 322 315 314 317 317 313 317 313 305
160 162 97 15 170 248 272 267 237 203 188 176 174 184 188 180 171 168 167 160 158 147 131 111 107 114 120 134 119 94 78 63 42 22 12 4 347 349 347 346 347 338 325 303 296 295 293 287 286
154 181 67 124 151 171 237 251 215 195 183 184 187 190 185 183 177 175 174 170 168 162 169 165 136 71 34 16 8 15 7 8 2 0 350 347 333 333 332 325 322 320 319 319 318 311 296 294 300
239 195 163 155 214 235 156 257 10 239 178 180 186 188 189 174 174 172 172 169 181 175 145 80 36 9 336 331 359 357 355 356 355 348 339 337 329 325 321 319 316 314 310 306 300 299 296 292 295